| time (UTC) | temp F | wind direction | speed knots | gust knots | rain 1hr in | rain 24hr in | rain mn in | humidity % | barometer mb |
| 20260502162538 | 78 | 112 | 1.7 | 2.6 | 0.00 | 0.00 | 0.00 | 22 | 1022.3 |
| 20260502161038 | 78 | 112 | 2.6 | 2.6 | 0.00 | 0.00 | 0.00 | 22 | 1022.5 |
| 20260502151038 | 79 | 180 | 1.7 | 2.6 | 0.00 | 0.00 | 0.00 | 23 | 1023.3 |
| 20260502122538 | 78 | 180 | 2.6 | 2.6 | 0.00 | 0.00 | 0.00 | 22 | 1025.4 |
| 20260502121038 | 78 | 112 | 7.0 | 7.0 | 0.00 | 0.00 | 0.00 | 22 | 1025.7 |
| 20260502115539 | 78 | 112 | 2.6 | 4.3 | 0.00 | 0.00 | 0.00 | 23 | 1025.8 |
| 20260502114039 | 78 | 135 | 3.5 | 7.0 | 0.00 | 0.00 | 0.00 | 23 | 1026.0 |
| 20260502112539 | 79 | 90 | 1.7 | 2.6 | 0.00 | 0.00 | 0.00 | 23 | 1026.2 |
| 20260502111039 | 78 | 112 | 1.7 | 3.5 | 0.00 | 0.00 | 0.00 | 26 | 1026.3 |
| 20260502105539 | 78 | 90 | 0.9 | 7.0 | 0.00 | 0.00 | 0.00 | 25 | 1026.4 |
| 20260502104039 | 77 | 90 | 0.0 | 4.3 | 0.00 | 0.00 | 0.00 | 27 | 1026.6 |
| 20260502102539 | 77 | 112 | 4.3 | 5.2 | 0.00 | 0.00 | 0.00 | 25 | 1026.9 |
| 20260502101039 | 81 | 90 | 1.7 | 1.7 | 0.00 | 0.00 | 0.00 | 26 | 1027.1 |
| 20260502091039 | 87 | 90 | 0.9 | 5.2 | 0.00 | 0.00 | 0.00 | 22 | 1027.8 |
| 20260502071039 | 95 | 157 | 0.0 | 1.7 | 0.00 | 0.00 | 0.00 | 23 | 1028.9 |
| 20260502065539 | 94 | 157 | 1.7 | 1.7 | 0.00 | 0.00 | 0.00 | 23 | 1029.1 |
| 20260502064039 | 93 | 0 | 0.0 | 0.0 | 0.00 | 0.00 | 0.00 | 25 | 1029.2 |
| 20260502062539 | 90 | 0 | 0.0 | 0.0 | 0.00 | 0.00 | 0.00 | 28 | 1029.4 |
| 20260502061039 | 84 | 0 | 0.0 | 0.0 | 0.00 | 0.00 | 0.00 | 33 | 1029.5 |
| 20260502055539 | 77 | 22 | 0.0 | 1.7 | 0.00 | 0.00 | 0.00 | 38 | 1029.4 |
| 20260502054039 | 68 | 0 | 0.0 | 0.0 | 0.00 | 0.00 | 0.00 | 51 | 1029.5 |
| 20260502052539 | 48 | 0 | 0.0 | 0.0 | 0.00 | 0.00 | 0.00 | 80 | 1029.5 |
| 20260502051039 | 45 | 0 | 0.0 | 0.0 | 0.00 | 0.00 | 0.00 | 81 | 1029.5 |
| 20260502045539 | 42 | 0 | 0.0 | 0.0 | 0.00 | 0.00 | 0.00 | 83 | 1029.4 |
| 20260502044039 | 42 | 0 | 0.0 | 0.0 | 0.00 | 0.00 | 0.00 | 83 | 1029.5 |
| 20260502042539 | 40 | 0 | 0.9 | 0.9 | 0.00 | 0.00 | 0.00 | 83 | 1029.4 |
| 20260502041039 | 39 | 0 | 0.0 | 0.0 | 0.00 | 0.00 | 0.00 | 82 | 1029.5 |
| 20260502035539 | 38 | 0 | 0.0 | 0.0 | 0.00 | 0.00 | 0.00 | 82 | 1029.3 |
| 20260502034039 | 38 | 0 | 0.0 | 0.0 | 0.00 | 0.00 | 0.00 | 82 | 1029.3 |
| 20260502032539 | 39 | 0 | 0.0 | 0.9 | 0.00 | 0.00 | 0.00 | 81 | 1029.3 |
| 20260502031039 | 39 | 0 | 0.0 | 0.0 | 0.00 | 0.00 | 0.00 | 80 | 1029.2 |
| 20260502025539 | 39 | 0 | 0.0 | 0.0 | 0.00 | 0.00 | 0.00 | 80 | 1029.3 |
| 20260502024039 | 39 | 0 | 0.0 | 0.0 | 0.00 | 0.00 | 0.00 | 79 | 1029.5 |
| 20260502022539 | 40 | 0 | 0.0 | 0.0 | 0.00 | 0.00 | 0.00 | 79 | 1029.4 |
| 20260502021039 | 40 | 0 | 0.0 | 0.0 | 0.00 | 0.00 | 0.00 | 78 | 1029.4 |
| 20260502015539 | 40 | 0 | 0.0 | 0.0 | 0.00 | 0.00 | 0.00 | 77 | 1029.6 |
| 20260502014039 | 41 | 0 | 0.0 | 0.0 | 0.00 | 0.00 | 0.00 | 77 | 1029.4 |
| 20260502012539 | 41 | 0 | 0.0 | 0.0 | 0.00 | 0.00 | 0.00 | 76 | 1029.6 |
| 20260502011039 | 41 | 0 | 0.0 | 0.0 | 0.00 | 0.00 | 0.00 | 75 | 1029.8 |
| 20260502005539 | 42 | 0 | 0.0 | 0.0 | 0.00 | 0.00 | 0.00 | 74 | 1029.8 |
| 20260502004039 | 43 | 0 | 0.0 | 0.0 | 0.00 | 0.00 | 0.00 | 72 | 1029.8 |
| 20260502002539 | 43 | 0 | 0.0 | 0.0 | 0.00 | 0.00 | 0.00 | 71 | 1030.0 |
| 20260502001040 | 44 | 0 | 0.0 | 0.0 | 0.00 | 0.00 | 0.00 | 70 | 1030.0 |
| 20260501235540 | 45 | 0 | 0.0 | 0.0 | 0.00 | 0.00 | 0.00 | 69 | 1030.1 |
| 20260501234040 | 45 | 0 | 0.0 | 0.0 | 0.00 | 0.00 | 0.00 | 68 | 1030.2 |
| 20260501232540 | 46 | 0 | 0.0 | 0.0 | 0.00 | 0.00 | 0.00 | 66 | 1030.2 |
| 20260501231040 | 47 | 0 | 0.0 | 0.0 | 0.00 | 0.00 | 0.00 | 65 | 1030.3 |
| 20260501225540 | 47 | 337 | 0.0 | 0.0 | 0.00 | 0.00 | 0.00 | 64 | 1030.3 |
| 20260501224040 | 48 | 337 | 0.0 | 0.0 | 0.00 | 0.00 | 0.00 | 63 | 1030.2 |
| 20260501222540 | 48 | 337 | 0.0 | 0.0 | 0.00 | 0.00 | 0.00 | 62 | 1030.1 |
| 20260501221040 | 49 | 337 | 1.7 | 2.6 | 0.00 | 0.00 | 0.00 | 61 | 1030.3 |
| 20260501215540 | 50 | 315 | 0.0 | 0.0 | 0.00 | 0.00 | 0.00 | 60 | 1030.3 |
| 20260501214040 | 50 | 0 | 1.7 | 2.6 | 0.00 | 0.00 | 0.00 | 60 | 1030.2 |
| 20260501212540 | 50 | 315 | 0.9 | 1.7 | 0.00 | 0.00 | 0.00 | 59 | 1030.1 |
| 20260501211040 | 50 | 337 | 0.0 | 1.7 | 0.00 | 0.00 | 0.00 | 59 | 1030.1 |
| 20260501205540 | 51 | 337 | 0.0 | 1.7 | 0.00 | 0.00 | 0.00 | 57 | 1030.1 |
| 20260501204040 | 52 | 337 | 1.7 | 1.7 | 0.00 | 0.00 | 0.00 | 57 | 1030.2 |
| 20260501202540 | 52 | 292 | 0.9 | 1.7 | 0.00 | 0.00 | 0.00 | 56 | 1030.1 |
| 20260501201040 | 52 | 315 | 2.6 | 2.6 | 0.00 | 0.00 | 0.00 | 55 | 1030.1 |
| 20260501195540 | 53 | 292 | 1.7 | 2.6 | 0.00 | 0.00 | 0.00 | 54 | 1029.9 |
| 20260501194040 | 54 | 337 | 3.5 | 3.5 | 0.00 | 0.00 | 0.00 | 53 | 1029.9 |
| 20260501192540 | 54 | 315 | 0.0 | 3.5 | 0.00 | 0.00 | 0.00 | 53 | 1030.0 |
| 20260501191040 | 55 | 337 | 1.7 | 3.5 | 0.00 | 0.00 | 0.00 | 51 | 1030.1 |
| 20260501185540 | 55 | 292 | 0.0 | 1.7 | 0.00 | 0.00 | 0.00 | 49 | 1030.0 |
| 20260501184040 | 57 | 315 | 0.0 | 0.0 | 0.00 | 0.00 | 0.00 | 47 | 1029.9 |
| 20260501182540 | 58 | 337 | 2.6 | 2.6 | 0.00 | 0.00 | 0.00 | 46 | 1029.7 |
| 20260501181040 | 61 | 315 | 1.7 | 1.7 | 0.00 | 0.00 | 0.00 | 41 | 1029.6 |
| 20260501175540 | 64 | 292 | 0.0 | 2.6 | 0.00 | 0.00 | 0.00 | 38 | 1029.4 |
| 20260501174040 | 69 | 292 | 3.5 | 3.5 | 0.00 | 0.00 | 0.00 | 34 | 1029.2 |
| 20260501172540 | 71 | 337 | 1.7 | 1.7 | 0.00 | 0.00 | 0.00 | 32 | 1029.0 |
| 20260501171040 | 74 | 337 | 2.6 | 2.6 | 0.00 | 0.00 | 0.00 | 30 | 1028.9 |
| 20260501165540 | 73 | 270 | 0.0 | 0.0 | 0.00 | 0.00 | 0.00 | 29 | 1029.0 |
| 20260501164040 | 71 | 270 | 0.0 | 1.7 | 0.00 | 0.00 | 0.00 | 30 | 1029.1 |